Date String (YYYY-MM-DD hh:mm:ss) UTC,Instrument flags,Ambient pressure (hPa),Sample flow (lpm),Bypass flow (lpm),Sample temperature (°C),Ambient temperature (°C),ASC tube jacket temperature (°C),LED temperature (°C),Box temperature (°C),Sample RH (%),Span deviation,Mass concentration (μg/m³),Mass concentration (μg/m³),Mass concentration (μg/m³)
DateTimeUTC,F1_M11,P_M11,Q1_M11,Q2_M11,T1_M11,T2_M11,T3_M11,T4_M11,T5_M11,U1_M11,ZSPAN_M11,X0_M11,X2_M11,X1_M11
2022-05-25 18:00:00,,0826.1,4.99,0.00,28.0,27.2,00.0,36.8,29.9,14.2,0000.0,0003.53,0002.58,0002.19
2022-05-25 18:01:00,,0826.1,5.00,0.00,28.0,27.2,00.0,36.8,29.9,14.7,0000.0,0003.58,0002.58,0002.20
2022-05-25 18:02:00,,0826.1,5.00,0.00,28.0,27.2,00.0,36.8,29.9,14.9,0000.0,0003.72,0002.59,0002.19
2022-05-25 18:03:00,,0826.1,5.00,0.00,28.0,27.2,00.0,36.8,30.0,13.9,0000.0,0003.79,0002.61,0002.18
2022-05-25 18:04:00,,0826.2,5.00,0.00,28.0,27.2,00.0,36.8,30.0,14.0,0000.0,0003.95,0002.63,0002.17
2022-05-25 18:05:00,,0826.1,5.00,0.00,28.1,27.3,00.0,36.8,30.0,15.1,0000.0,0004.04,0002.66,0002.18
2022-05-25 18:06:00,,0826.1,4.99,0.00,28.1,27.3,00.0,36.8,30.0,14.5,0000.0,0003.93,0002.64,0002.17
2022-05-25 18:07:00,,0826.1,5.00,0.00,28.1,27.3,00.0,36.9,30.0,15.1,0000.0,0003.94,0002.63,0002.17
2022-05-25 18:08:00,,0826.0,4.99,0.00,28.1,27.3,00.0,36.9,30.0,14.4,0000.0,0003.98,0002.61,0002.16
2022-05-25 18:09:00,,0826.0,5.00,0.00,28.1,27.3,00.0,36.9,30.0,14.1,0000.0,0004.02,0002.61,0002.16
2022-05-25 18:10:00,,0826.0,5.01,0.00,28.1,27.3,00.0,36.9,30.0,14.2,0000.0,0004.06,0002.62,0002.15
2022-05-25 18:11:00,,0826.0,5.02,0.00,28.1,27.3,00.0,36.9,30.1,14.7,0000.0,0004.12,0002.63,0002.13
2022-05-25 18:12:00,,0826.0,5.00,0.00,28.2,27.4,00.0,36.9,30.1,14.8,0000.0,0004.16,0002.68,0002.14
2022-05-25 18:13:00,,0826.0,5.01,0.00,28.2,27.4,00.0,36.9,30.1,14.5,0000.0,0004.12,0002.71,0002.16
2022-05-25 18:14:00,,0826.0,4.99,0.00,28.2,27.4,00.0,37.0,30.1,14.0,0000.0,0004.14,0002.71,0002.16
2022-05-25 18:15:00,,0826.0,4.99,0.00,28.2,27.4,00.0,37.0,30.1,14.7,0000.0,0004.04,0002.69,0002.16
2022-05-25 18:16:00,,0826.0,5.00,0.00,28.2,27.4,00.0,37.0,30.1,14.4,0000.0,0004.55,0002.67,0002.16
2022-05-25 18:17:00,,0826.0,5.01,0.00,28.2,27.4,00.0,37.0,30.1,14.2,0000.0,0004.67,0002.69,0002.17
2022-05-25 18:18:00,,0826.0,5.00,0.00,28.2,27.4,00.0,37.0,30.2,14.3,0000.0,0004.63,0002.68,0002.15
2022-05-25 18:19:00,,0826.0,5.00,0.00,28.2,27.4,00.0,37.0,30.2,14.8,0000.0,0004.58,0002.67,0002.16
2022-05-25 18:20:00,,0825.9,4.99,0.00,28.3,27.5,00.0,37.0,30.2,14.2,0000.0,0004.48,0002.62,0002.14
2022-05-25 18:21:00,,0825.9,5.01,0.00,28.3,27.5,00.0,37.1,30.2,14.6,0000.0,0004.42,0002.58,0002.12
2022-05-25 18:22:00,,0825.9,5.00,0.00,28.3,27.5,00.0,37.1,30.2,14.3,0000.0,0004.54,0002.60,0002.10
2022-05-25 18:23:00,,0825.9,5.01,0.00,28.3,27.5,00.0,37.1,30.2,14.0,0000.0,0004.51,0002.55,0002.07
2022-05-25 18:24:00,,0825.9,5.00,0.00,28.3,27.5,00.0,37.1,30.2,14.1,0000.0,0005.97,0002.48,0002.05
2022-05-25 18:25:00,,0825.9,5.00,0.00,28.3,27.5,00.0,37.1,30.2,13.4,0000.0,0006.43,0002.45,0002.04
2022-05-25 18:26:00,,0825.9,5.00,0.00,28.3,27.5,00.0,37.1,30.2,13.5,0000.0,0006.36,0002.42,0002.01
2022-05-25 18:27:00,,0825.9,5.01,0.00,28.3,27.5,00.0,37.1,30.2,13.8,0000.0,0005.89,0002.45,0002.00
2022-05-25 18:28:00,,0825.9,5.00,0.00,28.3,27.5,00.0,37.2,30.3,14.4,0000.0,0005.79,0002.43,0001.99
2022-05-25 18:29:00,,0825.9,5.00,0.00,28.4,27.5,00.0,37.2,30.3,13.1,0000.0,0005.83,0002.44,0001.98
2022-05-25 18:30:00,,0825.9,4.99,0.00,28.4,27.5,00.0,37.2,30.3,12.8,0000.0,0006.03,0002.49,0001.96
2022-05-25 18:31:00,,0825.8,5.00,0.00,28.4,27.6,00.0,37.2,30.3,12.9,0000.0,0006.05,0002.51,0001.97
2022-05-25 18:32:00,,0825.8,5.00,0.00,28.4,27.6,00.0,37.2,30.3,13.2,0000.0,0006.12,0002.55,0001.97
2022-05-25 18:33:00,,0825.8,5.00,0.00,28.4,27.6,00.0,37.2,30.3,12.9,0000.0,0006.08,0002.57,0001.99
2022-05-25 18:34:00,,0825.8,5.00,0.00,28.4,27.6,00.0,37.2,30.3,14.2,0000.0,0006.10,0002.57,0002.00
2022-05-25 18:35:00,,0825.8,4.99,0.00,28.4,27.6,00.0,37.2,30.3,13.9,0000.0,0004.63,0002.55,0001.97
2022-05-25 18:36:00,,0825.8,5.00,0.00,28.4,27.6,00.0,37.3,30.3,13.6,0000.0,0003.90,0002.55,0001.96
2022-05-25 18:37:00,,0825.7,5.00,0.00,28.4,27.6,00.0,37.3,30.3,13.6,0000.0,0003.87,0002.55,0001.96
2022-05-25 18:38:00,,0825.7,5.00,0.00,28.5,27.6,00.0,37.3,30.3,14.0,0000.0,0003.83,0002.52,0001.94
2022-05-25 18:39:00,,0825.7,5.00,0.00,28.5,27.6,00.0,37.3,30.4,14.3,0000.0,0004.21,0002.55,0001.94
2022-05-25 18:40:00,,0825.7,5.00,0.00,28.5,27.6,00.0,37.3,30.4,15.5,0000.0,0004.43,0002.54,0001.93
2022-05-25 18:41:00,,0825.7,4.99,0.00,28.5,27.6,00.0,37.3,30.4,14.1,0000.0,0004.24,0002.48,0001.92
2022-05-25 18:42:00,,0825.7,5.00,0.00,28.5,27.7,00.0,37.3,30.4,13.6,0000.0,0004.24,0002.47,0001.93
2022-05-25 18:43:00,,0825.7,5.00,0.00,28.5,27.7,00.0,37.3,30.4,13.8,0000.0,0004.27,0002.45,0001.94
2022-05-25 18:44:00,,0825.7,4.99,0.00,28.5,27.7,00.0,37.3,30.4,14.1,0000.0,0004.11,0002.38,0001.93
2022-05-25 18:45:00,,0825.7,5.01,0.00,28.5,27.7,00.0,37.3,30.4,13.7,0000.0,0004.01,0002.34,0001.92
2022-05-25 18:46:00,,0825.7,5.01,0.00,28.5,27.7,00.0,37.4,30.4,13.5,0000.0,0004.11,0002.39,0001.94
2022-05-25 18:47:00,,0825.6,4.99,0.00,28.5,27.7,00.0,37.4,30.4,13.4,0000.0,0004.03,0002.36,0001.94
2022-05-25 18:48:00,,0825.7,4.99,0.00,28.5,27.7,00.0,37.4,30.4,13.3,0000.0,0003.96,0002.35,0001.94
2022-05-25 18:49:00,,0825.6,5.00,0.00,28.6,27.7,00.0,37.4,30.4,13.4,0000.0,0003.80,0002.31,0001.93
2022-05-25 18:50:00,,0825.6,5.01,0.00,28.6,27.7,00.0,37.4,30.5,14.0,0000.0,0003.56,0002.28,0001.93
2022-05-25 18:51:00,,0825.6,5.01,0.00,28.6,27.7,00.0,37.4,30.5,13.6,0000.0,0003.24,0002.29,0001.94
2022-05-25 18:52:00,,0825.6,5.01,0.00,28.6,27.7,00.0,37.4,30.5,14.0,0000.0,0003.26,0002.30,0001.95
2022-05-25 18:53:00,,0825.5,4.99,0.00,28.6,27.7,00.0,37.4,30.5,14.5,0000.0,0003.38,0002.34,0001.95
2022-05-25 18:54:00,,0825.5,5.01,0.00,28.6,27.7,00.0,37.4,30.5,13.9,0000.0,0003.69,0002.35,0001.95
2022-05-25 18:55:00,,0825.6,5.00,0.00,28.6,27.7,00.0,37.5,30.5,13.5,0000.0,0004.14,0002.41,0001.97
2022-05-25 18:56:00,,0825.6,4.99,0.00,28.6,27.7,00.0,37.5,30.4,13.6,0000.0,0004.92,0002.46,0001.98
2022-05-25 18:57:00,,0825.5,4.99,0.00,28.6,27.6,00.0,37.5,30.4,13.6,0000.0,0004.95,0002.47,0001.99
2022-05-25 18:58:00,,0825.6,5.00,0.00,28.6,27.6,00.0,37.5,30.4,13.2,0000.0,0005.08,0002.48,0002.00
2022-05-25 18:59:00,,0825.6,5.01,0.00,28.6,27.6,00.0,37.5,30.4,13.1,0000.0,0005.18,0002.51,0002.00
